This demonstration page uses our WeatherBlox Daily Observations layout. Learn more.

Left ArrowRight Arrow

Hourly Observations for October 3, 2016

Temp ( °F °C ) Dew Point ( °F °C ) Humidity (%) Winds ( mph kmh ) Pressure ( in mb ) Visibility ( mi km ) Precip ( " mm )
12:51 am 00:51 Clear 67 19.4 58 14.4 73 73 E 6 9 29.80 1009 10 16 0.00 0.00
1:51 am 01:51 Mostly Clear 67 19.4 59 15 76 76 E 9 15 29.78 1009 10 16 0.00 0.00
2:51 am 02:51 Clear 66 18.9 59 15 78 78 ENE 6 9 29.78 1008 10 16 0.00 0.00
3:51 am 03:51 Partly Cloudy 62 16.7 59 15 90 90 W 6 9 29.78 1008 10 16 0.00 0.00
4:51 am 04:51 Clear 60 15.6 58 14.4 93 93 NNW 6 9 29.79 1009 10 16 0.00 0.00
5:51 am 05:51 Clear 59 15 57 13.9 93 93 SSE 5 7 29.82 1010 10 16 0.00 0.00
6:51 am 06:51 Sunny 61 16.1 58 14.4 90 90 E 3 6 29.82 1010 10 16 0.00 0.00
7:51 am 07:51 Sunny 66 18.9 60 15.6 81 81 Calm 29.83 1010 10 16 0.00 0.00
8:51 am 08:51 Sunny 71 21.7 60 15.6 68 68 Calm 29.83 1010 10 16 0.00 0.00
9:51 am 09:51 Sunny 76 24.4 59 15 56 56 VRB 6 9 29.81 1010 10 16 0.00 0.00
10:51 am 10:51 Sunny 79 26.1 56 13.3 45 45 VRB 3 6 29.78 1009 10 16 0.00 0.00
11:51 am 11:51 Sunny 81 27.2 51 10.6 35 35 VRB 7 11 29.75 1008 10 16 0.00 0.00
12:51 pm 12:51 Sunny 82 27.8 48 8.9 31 31 W 6 9 29.72 1007 10 16 0.00 0.00
1:51 pm 13:51 Mostly Cloudy 85 29.4 46 7.8 26 26 W 14 22 29.68 1005 10 16 0.00 0.00
2:51 pm 14:51 Sunny 85 29.4 43 6.1 23 23 NW 18 30 29.66 1005 10 16 0.00 0.00
3:51 pm 15:51 Sunny 84 28.9 41 5 22 22 WNW 21 33 29.67 1005 10 16 0.00 0.00
4:51 pm 16:51 Sunny 81 27.2 42 5.6 25 25 NW 18 30 29.67 1005 10 16 0.00 0.00
5:51 pm 17:51 Sunny 77 25 43 6.1 30 30 NW 17 28 29.68 1005 10 16 0.00 0.00
6:51 pm 18:51 Clear 73 22.8 38 3.3 28 28 NW 16 26 29.71 1006 10 16 0.00 0.00
7:51 pm 19:51 Clear 71 21.7 39 3.9 31 31 NNW 13 20 29.72 1007 10 16 0.00 0.00
8:51 pm 20:51 Clear 68 20 38 3.3 33 33 WNW 13 20 29.73 1007 10 16 0.00 0.00
9:51 pm 21:51 Clear 67 19.4 37 2.8 33 33 WNW 12 19 29.73 1007 10 16 0.00 0.00
10:51 pm 22:51 Clear 63 17.2 36 2.2 37 37 NW 8 13 29.73 1007 10 16 0.00 0.00
11:51 pm 23:51 Clear 62 16.7 32 0 32 32 NW 12 19 29.72 1006 10 16 0.00 0.00

Powered by AerisWeather